Location: Sunkist
(34.0772°N, 117.1909°W)
Time: 07:16:09
(UTC+00:00)

ARGOS - Visible Passes

Search period start: 16 July 2024 00:00
Search period end: 26 July 2024 00:00
Orbit: 820 x 833 km, 98.4° (Epoch: 15 July)

Date Brightness Start Highest point End Pass type
(mag) Time Alt. Az. Time Alt. Az. Time Alt. Az.
16 Jul 5.6 11:35:40 10° NE 11:39:28 19° E 11:43:16 10° SE visible
17 Jul 5.9 11:18:19 10° ENE 11:20:22 12° E 11:22:26 10° ESE visible
19 Jul 4.1 12:17:53 10° NNE 12:23:10 52° E 12:28:25 10° S visible
20 Jul 4.8 11:59:18 10° NNE 12:04:11 34° E 12:09:01 10° SSE visible
21 Jul 5.5 11:40:59 10° NE 11:45:08 22° E 11:49:15 10° SE visible
22 Jul 5.8 11:23:14 10° ENE 11:26:03 14° E 11:28:51 10° SE visible
24 Jul 3.8 12:23:27 10° NNE 12:28:48 60° E 12:34:06 10° S visible
25 Jul 4.6 12:04:47 10° NNE 12:09:49 39° E 12:14:48 10° SSE visible
